Location: Grasslands National Park East Block
(49.0708°N, 106.5295°W)
Time: 10:33:29
(UTC-06:00)

Tiros 1 - Visible Passes

Search period start: 16 October 2019 00:00
Search period end: 26 October 2019 00:00
Orbit: 630 x 664 km, 48.4° (Epoch: 16 October)

Date Brightness Start Highest point End Pass type
(mag) Time Alt. Az. Time Alt. Az. Time Alt. Az.
16 Oct 9.6 03:57:09 18° ESE 03:57:09 18° ESE 03:58:47 10° E visible
16 Oct 7.4 05:34:49 37° SW 05:36:35 64° SSE 05:41:21 10° E visible
17 Oct 8.7 04:22:12 31° ESE 04:22:12 31° ESE 04:25:10 10° E visible
17 Oct 7.2 05:59:52 26° WSW 06:02:38 80° S 06:07:27 10° E visible
18 Oct 7.7 04:47:14 55° ESE 04:47:14 55° ESE 04:51:19 10° E visible
18 Oct 7.2 06:24:54 16° W 06:28:43 84° S 06:33:33 10° E visible
19 Oct 10.0 03:34:34 13° E 03:34:34 13° E 03:35:07 10° E visible
19 Oct 7.0 05:12:14 73° SW 05:12:36 79° S 05:17:25 10° E visible
19 Oct 7.3 06:49:58 10° W 06:54:48 75° S 06:59:36 10° ESE visible
20 Oct 9.4 03:59:34 22° E 03:59:34 22° E 04:01:17 10° E visible
20 Oct 7.1 05:37:14 46° W 05:38:40 84° S 05:43:31 10° E visible
21 Oct 8.6 04:24:34 35° E 04:24:34 35° E 04:27:23 10° E visible
21 Oct 7.2 06:02:14 28° W 06:04:45 77° SSW 06:09:35 10° ESE visible
22 Oct 7.7 04:49:35 58° E 04:49:35 58° E 04:53:28 10° E visible
22 Oct 7.4 06:27:15 18° W 06:30:46 58° SSW 06:35:30 10° ESE visible
23 Oct 10.1 03:36:57 12° E 03:36:57 12° E 03:37:20 10° E visible
23 Oct 7.0 05:14:38 78° SSW 05:14:44 78° S 05:19:33 10° ESE visible
23 Oct 8.0 06:52:18 10° W 06:56:40 38° SSW 07:01:06 10° SE visible
24 Oct 9.6 04:02:02 19° E 04:02:02 19° E 04:03:26 10° E visible
24 Oct 7.3 05:39:43 48° WSW 05:40:45 60° SSW 05:45:30 10° ESE visible
25 Oct 8.9 04:27:11 29° ESE 04:27:11 29° ESE 04:29:31 10° ESE visible
25 Oct 7.8 06:04:52 29° WSW 06:06:39 40° SSW 06:11:08 10° SE visible
